Location: Arrodets-la-Barthe
(43.0306°N, 0.2829°E)
Time: 01:44:27
(UTC+00:00)

NOAA 19 - Pass Details

Date: 05 April 2023
Orbit: 840 x 859 km, 99.1° (Epoch: 29 May)

Event Time Altitude Azimuth Distance (km) Brightness Sun altitude
Exits shadow 19:18:17 - 149° (SSE) 3,140 7.7 -9.5°
Reaches altitude 10° 19:20:02 10° 146° (SE) 2,461 7.2 -9.8°
Maximum altitude 19:25:20 55° 70° (ENE) 1,014 5.4 -10.7°
Drops below altitude 10° 19:30:39 10° 354° (N) 2,469 8.0 -11.6°
Sets 19:33:04 0° 351° (N) 3,407 8.8 -12.0°
